Lid_Strength_Index
1 1 1 2 2 2 2 2 2 2 2 2 2 2 2 3 3 5 8 6 5 2 2 6 6 7 7 8 8 9 10 12 12 12 11 9 10 8 8 9 8 7 7 7 6
0 0 1 1 2 2 2 2 2 2 2 2 2 2 3 3 5 6 3 1 2 2 7 6 8 8 9 9 9 9 10 11 10 10 11 10 10 10 9 10 9 9 7 5 5
-0 0 1 1 1 2 2 2 2 2 2 2 2 2 3 4 6 6 1 1 1 2 6 5 7 9 10 10 10 11 10 10 10 10 11 10 11 10 10 10 9 10 8 6 6
0 0 1 1 1 1 2 2 2 2 2 2 2 3 3 5 9 5 0 1 1 5 6 8 10 11 11 11 11 12 11 10 10 10 11 10 10 10 10 10 8 7 6 7 8
1 1 1 0 0 1 1 2 2 2 2 2 2 3 6 5 5 4 1 3 6 6 9 10 11 11 11 11 10 11 11 10 9 10 10 10 10 10 10 8 7 8 8 9 9
1 1 1 0 0 1 1 2 2 2 4 4 4 4 7 8 5 6 6 6 7 8 9 9 10 9 10 11 11 10 10 10 10 9 10 10 10 10 10 8 9 10 10 10 11
2 1 1 1 1 1 1 2 2 2 4 4 4 7 8 6 5 5 6 7 7 8 9 8 8 9 9 11 10 10 11 10 10 9 9 9 10 13 9 9 10 10 11 11 11
2 2 2 2 2 2 2 2 2 3 4 4 4 8 7 3 5 5 6 6 7 8 8 8 8 9 10 9 11 12 12 12 10 9 10 10 12 11 9 10 11 11 11 12 12
3 3 3 3 3 3 3 3 3 3 4 4 7 8 7 3 5 5 5 6 8 9 8 8 8 11 10 12 14 14 14 14 12 10 10 10 12 11 9 10 12 12 12 12 12
3 3 3 3 3 3 3 4 4 4 5 6 7 8 6 6 6 8 6 8 10 9 10 11 12 13 13 13 16 16 15 15 14 11 11 11 11 12 11 11 12 12 12 12 12
3 3 2 3 3 4 4 5 6 8 8 7 7 7 6 6 5 9 8 9 9 10 13 13 14 15 14 14 13 14 14 15 13 11 12 12 12 12 12 12 13 13 13 13 13
3 3 3 3 3 4 3 5 6 8 9 7 6 7 6 5 7 6 8 10 11 13 13 14 14 12 12 13 13 14 14 14 13 12 12 12 13 12 12 13 13 13 13 13 13
3 3 3 3 4 4 5 5 6 7 10 9 8 8 7 6 7 7 9 10 12 14 14 13 11 12 12 13 13 13 14 14 14 12 13 13 14 13 13 12 13 13 13 13 13
4 3 4 4 5 5 5 4 5 6 13 13 11 8 7 6 9 5 6 9 11 11 13 13 11 12 12 13 12 14 12 12 13 14 16 14 17 14 13 13 12 12 13 13 13
4 3 4 3 6 6 4 3 5 8 22 13 11 6 6 7 9 8 5 7 9 11 10 12 12 12 13 12 11 13 11 13 13 14 16 16 16 15 14 13 12 12 12 12 13
3 1 3 4 5 4 3 4 6 13 21 14 10 10 9 8 9 8 7 6 7 10 11 11 10 11 11 11 11 11 12 14 14 15 18 15 15 15 14 12 12 11 11 12 13
2 1 1 2 4 4 3 5 13 17 12 14 13 9 10 10 10 11 10 11 11 14 13 12 11 10 10 11 11 12 13 16 17 18 18 15 17 14 13 11 10 10 11 12 12
2 2 1 1 2 2 2 9 17 14 13 10 12 10 11 10 12 12 11 13 12 12 13 14 15 12 11 10 12 13 13 16 20 19 17 16 17 14 12 11 11 11 11 12 12
2 3 3 3 3 3 6 14 13 13 11 11 12 13 12 12 12 13 12 13 12 12 13 15 15 11 11 11 11 13 14 12 15 16 17 15 14 12 12 12 11 10 11 11 12
3 4 5 2 3 4 9 12 12 10 10 10 13 12 14 13 13 13 14 12 12 11 9 12 15 12 12 10 11 11 11 14 14 18 19 16 15 14 12 11 10 10 11 11 13
3 6 3 2 3 7 13 12 10 8 9 11 12 12 13 13 12 13 13 11 11 12 10 11 12 14 12 13 13 13 13 13 12 14 16 17 16 10 10 9 9 10 10 12 13
4 9 3 1 9 10 11 9 8 9 8 9 9 10 11 12 13 13 13 12 11 10 12 10 12 15 14 12 11 12 12 11 14 15 14 14 15 11 10 10 9 10 11 12 13
6 7 3 2 12 11 9 9 8 9 9 9 10 9 8 11 12 11 11 10 10 10 11 10 12 15 14 12 12 13 12 12 12 12 15 16 15 11 11 11 10 11 12 13 13
7 10 7 5 6 9 10 10 10 8 8 8 8 8 9 10 9 12 12 10 9 9 8 8 12 13 15 13 12 14 13 12 12 14 14 14 13 10 9 11 12 12 12 12 13
6 9 7 11 10 9 9 10 11 11 8 7 9 9 10 12 11 11 11 11 10 9 10 9 13 14 13 13 13 13 13 12 13 12 14 13 12 10 10 10 10 11 12 13 14
8 8 8 9 7 9 9 10 11 10 9 10 10 9 9 11 10 11 11 11 11 10 11 11 13 15 17 13 13 14 13 13 13 12 13 13 13 9 10 11 11 12 13 14 14
4 5 6 8 9 10 10 10 10 8 8 7 8 9 10 9 7 7 7 7 8 10 11 11 13 13 15 14 13 15 14 14 12 12 11 14 11 10 12 11 11 13 13 14 14